Location: Nantong Television Tower
(32.0188°N, 120.8512°E)
Time: 15:20:42
(UTC+08:00)

Vanguard 3 - Visible Passes

Search period start: 25 May 2015 00:00
Search period end: 04 June 2015 00:00
Orbit: 509 x 3270 km, 33.3° (Epoch: 24 May)

Date Brightness Start Highest point End Pass type
(mag) Time Alt. Az. Time Alt. Az. Time Alt. Az.
25 May 11.3 01:56:18 10° SSE 02:03:21 14° SE 02:12:06 10° ESE visible
25 May 10.6 04:02:39 10° SSW 04:19:50 40° SSE 04:33:04 10° E visible
26 May 10.9 02:51:10 13° S 03:04:19 29° SE 03:17:56 10° E visible
27 May 11.1 01:42:14 14° SSE 01:48:45 18° SE 02:00:14 10° ESE visible
27 May 10.4 03:46:54 10° SSW 04:05:05 46° SSE 04:19:25 10° E visible
28 May 10.7 02:37:53 19° S 02:49:29 34° SE 03:04:24 10° E visible
29 May 10.9 01:28:49 19° SSE 01:33:58 22° SE 01:47:21 10° E visible
29 May 10.3 03:33:27 15° SW 03:50:11 52° SSE 04:05:35 10° E visible
30 May 11.3 00:19:42 11° SE 00:19:42 11° SE 00:24:03 10° ESE visible
30 May 10.6 02:24:20 24° S 02:34:30 39° SE 02:50:36 10° E visible
31 May 10.7 01:15:09 24° SSE 01:19:02 26° SE 01:33:53 10° E visible
31 May 10.3 03:19:46 19° SW 03:35:10 58° SSE 03:51:35 10° ENE visible
01 Jun 11.1 00:05:55 14° SE 00:05:55 14° SE 00:13:20 10° ESE visible
01 Jun 10.4 02:10:31 30° S 02:19:24 44° SE 02:36:32 10° E visible
01 Jun 10.1 04:15:58 10° WSW 04:36:09 77° SSE 04:51:42 10° ENE visible
02 Jun 10.6 01:01:14 29° SSE 01:04:00 30° SE 01:20:00 10° E visible
02 Jun 10.2 03:05:50 23° SW 03:20:05 64° SSE 03:37:25 10° ENE visible
02 Jun 11.0 23:51:52 17° SE 23:51:52 17° SE 00:00:37 10° E visible
03 Jun 10.2 01:56:28 35° S 02:04:14 49° SE 02:22:15 10° ENE visible
03 Jun 10.1 04:01:05 10° WSW 04:21:11 81° SSE 04:37:39 10° ENE visible
